This demonstration page uses our WeatherBlox Daily Observations layout. Learn more.

Left ArrowRight Arrow

41.86663, -103.66717

Hourly Observations for August 11, 2020

Temp ( °F °C ) Dew Point ( °F °C ) Humidity (%) Winds ( mph kmh ) Pressure ( in mb ) Visibility ( mi km ) Precip ( " mm )
12:53 am 00:53 Clear 68 20 62 16.7 81 81 ESE 14 22 29.88 1012 10 16 N/A
1:53 am 01:53 Clear 67 19.4 62 16.7 84 84 E 9 15 29.88 1012 10 16 N/A
2:53 am 02:53 Clear 66 18.9 63 17.2 90 90 E 7 11 29.87 1012 10 16 N/A
3:53 am 03:53 Clear 65 18.3 63 17.2 93 93 ESE 9 15 29.85 1011 10 16 N/A
4:53 am 04:53 Clear 64 17.8 63 17.2 96 96 E 8 13 29.84 1010 10 16 N/A
5:53 am 05:53 Clear 64 17.8 62 16.7 93 93 E 7 11 29.83 1010 10 16 N/A
6:53 am 06:53 Sunny 63 17.2 62 16.7 97 97 E 8 13 29.84 1011 7 11 N/A
7:53 am 07:53 Sunny 69 20.6 65 18.3 87 87 SE 8 13 29.84 1011 10 16 N/A
8:53 am 08:53 Sunny 70 21.1 64 17.8 82 82 SSE 7 11 29.85 1011 10 16 N/A
9:53 am 09:53 Sunny 74 23.3 64 17.8 71 71 ESE 9 15 29.82 1010 10 16 0.00 0.00
10:53 am 10:53 Sunny 80 26.7 62 16.7 54 54 VRB 3 6 29.81 1010 10 16 N/A
11:53 am 11:53 Sunny 87 30.6 58 14.4 37 37 N N/A 29.78 1008 10 16 N/A
12:53 pm 12:53 Sunny 93 33.9 50 10 23 23 SSE 3 6 29.75 1007 10 16 N/A
1:53 pm 13:53 Sunny 96 35.6 47 8.3 19 19 undefined N/A 29.72 1007 10 16 N/A
2:53 pm 14:53 Sunny 97 36.1 45 7.2 17 17 S 8 13 29.70 1006 10 16 N/A
3:53 pm 15:53 Partly Cloudy with Light Rain 90 32.2 50 10 25 25 S 16 26 29.73 1007 10 16 0.00 0.00
4:53 pm 16:53 Sunny 96 35.6 40 4.4 14 14 S 12 19 29.69 1005 10 16 0.00 0.00
5:53 pm 17:53 Sunny 93 33.9 51 10.6 24 24 E 10 17 29.69 1006 10 16 N/A
6:53 pm 18:53 Sunny 86 30 49 9.4 28 28 undefined N/A 29.70 1006 10 16 N/A
7:53 pm 19:53 Sunny 78 25.6 52 11.1 40 40 E 12 19 29.75 1007 10 16 N/A
8:53 pm 20:53 Clear 80 26.7 48 8.9 33 33 undefined N/A 29.78 1008 10 16 N/A
9:53 pm 21:53 Clear 75 23.9 50 10 41 41 E 10 17 29.83 1010 10 16 N/A
10:53 pm 22:53 Clear 73 22.8 50 10 44 44 ESE 12 19 29.84 1011 10 16 N/A
11:53 pm 23:53 Clear 71 21.7 51 10.6 49 49 ESE 20 31 29.83 1010 10 16 N/A

Powered by AerisWeather